STARLINK-5709 (55621 NORAD) Tracking and Keplerian Element Data

This shows tracking and keplerian element data for the satellite.

Feedback or suggestion? Click here.




ElementValue
Catalog55621
NameSTARLINK-5709
Epoch Orbit660
Epoch Day85.25001157
Epoch Year2023
RAAN103.8384
Inclination42.9982
Eccentricity0.0001332
Argument of Perigee270.4451
Mean Anonmoly104.3562
Mean Motion15.48931783
Decay Rate-0.00056273
L11 55621U 23020BE 23085.25001157 -.00056273 00000+0 -10181-2 0 9992
L22 55621 42.9982 103.8384 0001332 270.4451 104.3562 15.48931783 6606



Live tracking and technical data element details for STARLINK-5709 (NORAD 55621). STARLINK-5709 can be tracked NOW for your location showing map with azimuth and elevation plus other details from your city location.







IsCatalogInMostPopularTable: catalog: 55621, numindb: 4
Update: records affected: 1



GetName: 55621 STARLINK-5709

Hit Count: updated at: Tue, 28 Mar 2023 01:51:20 GMT